Location: NJAA Observatory
(40.6819°N, 74.8979°W)
Time: 21:52:43
(UTC-04:00)

Courier 1B - All Passes

Search period start: 18 October 2017 00:00
Search period end: 28 October 2017 00:00
Orbit: 962 x 1209 km, 28.3° (Epoch: 18 October)

Date Brightness Start Highest point End Pass type
(mag) Time Alt. Az. Time Alt. Az. Time Alt. Az.
18 Oct - 01:07:25 10° S 01:10:57 14° SSE 01:14:34 10° SE night (unlit)
18 Oct - 02:57:57 10° SW 03:04:06 28° SSE 03:10:26 10° ESE visible
18 Oct - 04:50:55 10° WSW 04:57:36 32° S 05:04:22 10° ESE visible
18 Oct - 06:45:06 10° WSW 06:51:03 24° SSW 06:56:59 10° SSE visible
19 Oct - 02:04:45 10° SW 02:10:26 24° SSE 02:16:20 10° ESE visible
19 Oct - 03:57:16 10° WSW 04:03:50 32° S 04:10:36 10° ESE visible
19 Oct - 05:51:04 10° WSW 05:57:21 27° SSW 06:03:41 10° SE visible
19 Oct - 07:47:01 10° SW 07:50:35 14° SSW 07:54:09 10° S daylight
20 Oct - 01:11:47 10° SSW 01:16:49 20° SSE 01:22:02 10° ESE night (unlit)
20 Oct - 03:03:44 10° SW 03:10:07 31° S 03:16:44 10° ESE visible
20 Oct - 04:57:12 10° WSW 05:03:37 30° S 05:10:11 10° SE visible
20 Oct - 06:52:11 10° WSW 06:56:57 17° SSW 07:01:44 10° SSE visible
21 Oct - 00:19:09 10° SSW 00:23:16 16° SSE 00:27:30 10° ESE night (unlit)
21 Oct - 02:10:20 10° SW 02:16:25 29° S 02:22:47 10° ESE visible
21 Oct - 04:03:26 10° WSW 04:09:53 31° S 04:16:32 10° SE visible
21 Oct - 05:57:50 10° WSW 06:03:17 21° SSW 06:08:49 10° SSE visible
21 Oct - 23:27:13 10° S 23:29:46 12° SSE 23:32:20 10° SE night (unlit)
22 Oct - 01:17:05 10° SW 01:22:47 26° SSE 01:28:44 10° ESE night (unlit)
22 Oct - 03:09:48 10° WSW 03:16:10 32° S 03:22:47 10° ESE visible
22 Oct - 05:03:45 10° WSW 05:09:37 24° SSW 05:15:36 10° SE visible
22 Oct - 07:01:06 10° SW 07:02:48 11° SSW 07:04:29 10° SSW daylight
23 Oct - 00:24:01 10° SSW 00:29:11 22° SSE 00:34:34 10° ESE night (unlit)
23 Oct - 02:16:16 10° SW 02:22:28 31° S 02:28:57 10° ESE visible
23 Oct - 04:09:52 10° WSW 04:15:55 27° SSW 04:22:10 10° SE visible
23 Oct - 06:05:25 10° SW 06:09:11 14° SSW 06:13:00 10° S visible
23 Oct - 23:31:12 10° SSW 23:35:38 18° SSE 23:40:14 10° ESE night (unlit)
24 Oct - 01:22:52 10° SW 01:28:48 29° S 01:35:04 10° ESE night (unlit)
24 Oct - 03:16:06 10° WSW 03:22:13 29° S 03:28:36 10° SE visible
24 Oct - 05:10:49 10° WSW 05:15:33 18° SSW 05:20:23 10° SSE visible
24 Oct - 22:38:48 10° S 22:42:09 14° SSE 22:45:35 10° SE night (unlit)
25 Oct - 00:29:34 10° SW 00:35:11 27° S 00:41:05 10° ESE night (unlit)
25 Oct - 02:22:28 10° WSW 02:28:32 30° S 02:34:55 10° SE night (unlit)
25 Oct - 04:16:38 10° WSW 04:21:54 21° SSW 04:27:19 10° SSE visible
25 Oct - 21:47:47 10° SSE 21:48:42 10° SSE 21:49:36 10° SE night (unlit)
25 Oct - 23:36:24 10° SW 23:41:37 24° SSE 23:47:02 10° ESE night (unlit)
26 Oct - 01:28:56 10° WSW 01:34:52 30° S 01:41:08 10° ESE night (unlit)
26 Oct - 03:22:42 10° WSW 03:28:15 24° SSW 03:34:01 10° SE visible
26 Oct - 05:19:35 10° SW 05:21:26 11° SSW 05:23:20 10° SSW visible
26 Oct - 22:43:27 10° SSW 22:48:05 20° SSE 22:52:53 10° ESE night (unlit)
27 Oct - 00:35:29 10° SW 00:41:15 29° S 00:47:19 10° ESE night (unlit)
27 Oct - 02:28:54 10° WSW 02:34:36 26° S 02:40:33 10° SE night (unlit)
27 Oct - 04:24:13 10° SW 04:27:51 14° SSW 04:31:33 10° S visible
27 Oct - 21:50:45 10° SSW 21:54:37 16° SSE 21:58:33 10° ESE night (unlit)
27 Oct - 23:42:09 10° SW 23:47:40 28° S 23:53:27 10° ESE night (unlit)
